CAPE
nan nan nan nan nan nan nan nan nan nan nan nan nan nan nan nan nan nan nan nan nan nan nan nan nan nan nan nan nan nan 2 7 12 12 15 18 20 20 23 25 25 28 28 28 28 31 33 34 34 37 39 42 45 45 46 51 51 56 59 68 68 80 92 104 104 114 119 123 127 127 126 130 129 129 136 139 139 139 145 150 150 153 157 153 153 151
nan nan nan nan nan nan nan nan nan nan nan nan nan nan nan nan nan nan nan nan nan nan nan nan nan nan nan nan 0 0 2 6 8 8 11 13 16 16 18 22 22 23 25 27 27 29 30 31 31 34 37 40 41 41 45 49 49 52 56 63 63 72 87 97 97 106 111 115 113 113 114 118 113 113 118 120 123 123 127 135 135 140 143 146 146 150
nan nan nan nan nan nan nan nan nan nan nan nan nan nan nan nan nan nan nan nan nan nan nan nan nan nan nan nan 0 0 1 3 4 4 7 10 11 11 14 16 16 18 19 22 22 27 29 31 31 32 34 37 39 39 43 48 48 52 54 61 61 66 77 87 87 93 96 96 96 96 97 97 98 98 106 112 117 117 123 126 126 123 131 138 138 147
nan nan nan nan nan nan nan nan nan nan nan nan nan nan nan nan nan nan nan nan nan nan nan nan nan nan nan nan nan nan 0 0 2 2 4 6 8 8 9 12 12 13 15 19 19 21 25 27 27 31 35 35 40 40 43 47 47 52 55 58 58 62 69 74 74 78 78 81 78 78 77 81 85 85 92 101 110 110 116 113 113 109 115 129 129 141
nan nan nan nan nan nan nan nan nan nan nan nan nan nan nan nan nan nan nan nan nan nan nan nan nan nan nan nan nan nan nan nan 0 0 2 3 4 4 5 7 7 9 12 14 14 15 19 21 21 27 33 35 36 36 41 45 45 50 51 56 56 57 62 64 64 65 63 65 65 65 68 70 76 76 83 92 97 97 99 102 102 98 106 121 121 137
nan nan nan nan nan nan nan nan nan nan nan nan nan nan nan nan nan nan nan nan nan nan nan nan nan nan nan nan nan nan nan nan 0 0 0 1 2 2 3 4 4 7 8 11 11 13 17 20 20 25 31 33 33 33 35 38 38 41 45 48 48 51 51 51 51 55 54 56 55 55 58 63 67 67 71 77 81 81 90 93 93 94 97 111 111 131
nan nan nan nan nan nan nan nan nan nan nan nan nan nan nan nan nan nan nan nan nan nan nan nan nan nan nan nan nan nan nan nan nan nan nan 0 1 1 2 4 4 7 9 12 12 15 18 23 23 26 31 33 33 33 33 35 35 34 36 39 39 41 42 44 44 45 45 47 49 49 54 56 58 58 64 67 73 73 80 85 85 95 103 117 117 125
nan nan nan nan nan nan nan nan nan nan nan nan nan nan nan 0 1 1 2 0 0 nan nan nan nan nan nan nan nan nan nan nan nan nan nan nan 0 0 3 7 7 11 13 15 15 18 21 22 22 25 25 26 26 26 27 26 26 25 25 26 26 28 28 32 32 34 35 37 41 41 44 46 49 49 50 51 53 53 59 72 72 96 114 128 128 138
nan nan nan nan nan nan nan nan nan nan nan nan nan nan 1 1 nan nan nan nan nan nan nan nan nan nan nan nan nan nan nan nan nan nan nan nan nan nan 1 7 7 10 12 13 13 15 16 17 17 18 18 17 17 17 17 16 16 15 17 18 18 20 22 24 24 29 31 33 38 38 41 44 46 46 47 47 53 53 60 67 67 90 114 144 144 166
nan nan nan nan nan nan nan nan nan nan 0 0 1 1 4 0 nan nan nan nan nan nan nan nan nan nan nan nan nan nan nan nan 1 1 3 0 5 5 3 2 2 2 8 9 9 10 9 10 10 9 9 9 9 9 8 7 7 8 10 11 11 14 17 23 23 25 28 31 34 34 41 46 51 51 54 59 61 61 71 76 76 93 125 158 158 184
nan nan nan nan nan nan nan nan 0 0 4 4 3 3 1 nan nan nan nan nan nan nan nan nan nan nan nan nan nan nan nan nan nan nan nan 1 1 1 2 1 1 2 4 4 4 3 3 3 3 4 3 3 2 2 2 2 2 3 6 7 7 9 13 18 18 23 30 33 40 40 47 51 60 60 67 75 77 77 80 89 89 103 128 156 156 185
nan nan nan nan nan nan nan 0 3 3 6 4 nan nan nan nan 0 0 nan nan nan nan nan nan nan nan nan nan nan nan nan nan nan nan nan nan nan nan nan nan nan nan nan nan nan 0 0 0 0 1 0 nan 1 1 1 0 0 1 2 4 4 8 11 18 18 24 31 38 46 46 57 62 73 73 85 86 96 96 96 103 103 111 130 150 150 166
nan nan nan nan nan nan 0 4 10 10 5 nan nan nan nan nan 0 0 2 0 0 0 nan nan nan nan 0 nan nan nan nan nan nan nan nan nan nan nan nan nan nan nan nan nan nan nan nan nan nan nan nan nan nan nan nan nan nan 0 2 5 5 9 16 23 23 27 35 45 52 52 62 66 78 78 84 93 96 96 101 105 105 112 124 139 139 151
nan nan 0 0 0 0 5 10 6 6 1 nan nan nan nan nan 0 0 1 1 1 0 1 0 0 0 0 nan nan nan nan nan nan nan nan nan nan nan nan nan nan nan nan nan nan nan nan nan nan nan nan nan nan nan nan nan nan 1 3 8 8 14 20 25 25 31 40 49 52 52 57 63 71 71 83 89 97 97 103 104 104 108 116 128 128 139
1 0 0 1 1 4 8 4 0 0 nan nan nan nan nan 0 2 2 2 2 2 1 2 3 3 2 0 nan nan nan 0 0 0 0 nan nan nan nan nan nan nan nan nan nan nan nan nan nan nan nan nan nan nan nan nan nan nan 3 5 11 11 17 24 30 30 34 40 47 52 52 55 58 69 69 77 87 94 94 104 111 111 112 117 124 124 125
3 2 3 6 6 7 2 0 0 0 nan nan nan nan 0 2 2 2 3 2 2 2 4 3 3 2 0 0 0 0 1 2 1 1 0 nan nan nan nan nan nan nan nan nan nan nan nan nan nan nan nan nan nan nan nan 0 0 4 8 13 13 20 25 30 30 36 41 47 50 50 55 59 69 69 78 88 95 95 101 109 109 116 120 123 123 129
9 11 13 17 17 7 1 0 nan nan nan nan 0 0 1 4 4 4 4 4 4 3 5 5 5 3 1 nan nan nan 2 2 2 2 0 nan nan nan nan nan nan nan nan nan nan nan nan nan nan nan nan nan nan nan 0 3 3 7 12 16 16 21 24 32 32 36 43 47 51 51 56 63 68 68 72 81 88 88 95 106 106 116 121 125 125 131
19 12 4 6 6 5 2 0 0 0 0 0 1 1 5 8 7 7 3 2 2 5 7 7 7 3 2 0 nan nan 2 2 2 2 0 nan nan nan nan nan nan nan nan nan nan nan nan nan nan nan nan 0 1 1 3 6 6 9 13 18 18 22 26 34 34 39 44 50 53 53 57 62 66 66 70 76 81 81 92 103 103 108 113 126 126 123
15 7 3 7 7 3 1 0 0 0 0 2 4 4 8 7 7 7 2 2 2 4 9 7 7 5 4 2 nan nan 1 1 1 1 1 nan nan nan nan nan nan nan nan nan nan nan nan nan nan nan 0 2 3 3 5 8 8 12 15 19 19 23 28 34 34 40 45 48 54 54 57 63 67 67 69 77 79 79 89 95 95 104 108 113 113 115
9 8 6 2 2 2 2 1 2 2 2 4 10 10 9 3 2 2 1 3 3 6 10 7 7 5 4 3 0 0 0 1 2 2 1 0 nan nan nan nan nan nan nan nan nan nan nan nan nan nan nan 1 4 4 8 11 11 14 17 21 21 26 29 35 35 41 44 47 54 54 56 60 65 65 70 71 78 78 86 90 90 95 104 108 108 111
8 7 3 3 3 5 3 3 2 2 5 10 11 11 8 1 1 1 1 4 4 8 4 7 7 3 1 0 0 0 1 1 2 2 1 0 nan nan nan nan nan nan nan nan nan nan nan nan nan nan nan 2 5 5 10 13 13 17 20 24 24 27 31 35 35 40 43 45 51 51 55 56 59 59 66 71 74 74 80 88 88 92 99 99 99 102
5 7 5 7 7 6 5 3 7 7 13 12 1 1 1 1 0 0 2 5 5 7 7 5 5 2 1 0 1 1 2 1 3 3 2 0 nan nan nan nan nan nan nan nan nan nan nan nan nan nan nan 4 8 8 11 14 14 18 22 23 23 28 31 35 35 39 43 45 48 48 52 52 57 57 62 67 70 70 78 82 82 85 91 94 94 96
4 12 8 7 7 7 8 9 11 11 12 2 2 2 0 1 4 4 7 13 13 7 3 2 2 1 1 1 1 1 1 2 3 3 2 0 nan nan nan nan nan nan nan nan nan nan nan nan nan nan 0 7 7 7 10 12 12 17 20 24 24 27 31 34 34 38 42 42 45 45 48 52 54 54 61 64 65 65 72 76 76 78 78 79 79 81
8 12 9 8 8 12 17 12 2 2 0 nan nan nan 2 9 20 20 15 10 10 3 1 0 0 0 2 1 0 0 nan 0 1 1 1 0 nan nan nan nan nan nan nan nan nan nan nan nan nan nan nan 4 6 6 9 12 12 15 20 24 24 26 30 33 33 36 39 44 45 45 48 48 52 52 54 58 59 59 61 65 65 68 71 73 73 76
8 8 9 12 12 30 24 7 2 2 10 17 26 26 22 20 11 11 4 3 3 1 2 3 3 2 0 1 nan nan nan nan 0 0 0 0 nan nan nan nan nan nan nan nan nan nan nan nan nan nan nan 1 5 5 7 10 10 13 15 20 20 22 25 30 30 33 37 39 44 44 43 46 47 47 48 52 52 52 52 56 56 60 66 67 67 70
13 15 19 33 33 63 73 85 77 77 43 8 4 4 3 5 4 4 4 3 3 3 4 3 3 1 0 nan nan nan nan nan 0 0 0 0 nan nan nan nan nan nan nan nan nan nan nan nan nan nan nan nan 2 2 5 8 8 10 13 15 15 17 19 22 22 26 30 34 37 37 38 39 43 43 45 50 50 50 52 55 55 59 63 66 66 70
23 33 49 59 59 56 46 31 24 24 23 18 9 9 8 8 5 5 5 3 3 5 4 3 3 1 0 nan nan nan nan nan 0 0 1 0 nan nan nan nan nan nan nan nan nan nan 0 nan nan nan nan nan nan nan 4 6 6 9 9 10 10 11 13 16 16 18 22 28 31 31 35 37 41 41 45 47 48 48 54 55 55 58 62 65 65 68
17 30 33 26 26 19 12 12 14 14 18 22 26 26 17 8 4 4 4 3 3 5 4 3 3 1 0 nan nan nan nan nan nan nan 0 0 0 0 nan nan nan 0 nan nan nan 1 5 1 1 nan nan nan nan nan 1 5 5 6 6 6 6 7 10 12 12 16 20 23 28 28 33 38 41 41 44 44 46 46 47 51 51 54 58 48 48 26
2 3 2 2 2 2 4 6 7 7 9 10 14 14 14 7 5 5 4 4 4 4 3 2 2 1 1 0 nan nan nan nan nan nan 0 nan nan nan nan nan nan 0 nan 0 0 2 2 1 1 nan nan nan nan nan nan 2 2 2 4 4 4 6 8 9 9 12 15 19 25 25 30 34 40 40 42 43 42 42 45 46 46 49 43 32 32 19
nan nan nan nan nan nan nan nan nan nan 0 4 11 11 13 7 5 5 5 4 4 3 2 2 2 3 2 1 0 0 nan nan nan nan nan nan nan nan nan nan nan nan nan 0 0 nan nan nan nan nan nan nan nan nan nan nan nan nan 0 3 3 2 4 7 7 10 13 18 22 22 25 30 35 35 38 40 41 41 42 42 42 38 26 17 17 17
nan nan nan nan nan nan nan nan nan nan nan 4 9 9 9 6 4 4 3 4 4 3 3 3 3 4 3 1 0 0 nan nan nan nan nan 0 0 0 0 0 0 0 0 nan nan 0 nan nan nan nan nan nan nan nan nan nan nan nan nan nan nan nan 3 5 5 8 12 16 19 19 22 23 26 26 27 30 34 34 37 39 39 33 15 11 11 16
nan nan nan nan nan nan nan nan nan nan nan nan nan nan 3 5 4 4 3 6 6 7 7 6 6 5 3 2 0 0 nan nan 0 0 1 0 3 3 2 1 1 0 2 1 1 nan nan nan nan nan nan 0 nan nan nan nan nan nan nan nan nan nan 0 2 2 2 2 6 9 9 11 12 13 13 13 16 19 19 22 26 26 29 17 11 11 15
nan nan nan nan nan nan nan nan nan nan nan nan 0 0 1 2 3 3 3 6 6 7 7 6 6 3 2 1 0 0 0 nan 1 1 4 0 4 4 4 1 1 2 3 2 2 0 nan nan nan nan 0 nan nan nan nan nan nan nan nan nan nan nan nan nan nan nan 0 1 3 3 6 6 8 8 9 12 13 13 16 19 19 24 28 9 9 15
nan nan nan nan nan nan nan nan nan nan nan nan nan nan 0 0 1 1 3 4 4 6 7 8 8 4 2 2 0 0 nan nan 1 1 3 1 1 1 2 1 1 1 1 2 2 2 0 nan nan nan nan nan 0 0 nan nan nan nan nan nan nan nan nan nan nan nan nan 0 nan nan nan 0 4 4 4 6 8 8 12 18 18 24 31 22 22 16
nan nan nan nan nan nan nan nan nan nan nan nan nan nan nan 0 0 0 2 4 4 4 5 6 6 5 2 1 0 0 nan nan 0 0 6 3 1 1 1 1 1 2 0 2 2 0 1 1 1 1 0 nan nan nan nan nan nan nan nan nan nan nan nan nan nan 0 nan nan nan nan nan nan nan nan 0 2 6 6 13 19 19 26 30 39 39 35
nan nan nan nan nan nan nan nan nan nan nan nan nan nan nan 0 0 0 2 3 3 4 4 5 5 5 3 1 1 1 0 nan 1 1 6 3 1 1 1 2 2 1 1 2 2 3 2 2 2 3 3 0 nan nan nan nan nan nan nan 0 0 0 0 0 0 0 nan nan nan nan nan nan nan nan nan 3 8 8 13 18 18 21 26 35 35 43
nan nan nan nan nan nan nan nan nan nan nan nan nan nan nan 0 1 1 1 4 4 5 4 6 6 3 7 1 0 0 0 0 1 1 3 1 nan nan nan 4 4 6 1 1 1 2 nan 0 0 2 1 0 nan nan nan nan nan nan nan nan nan 0 0 0 0 0 0 0 nan nan nan 0 0 0 1 6 7 7 11 13 13 13 16 21 21 32
nan nan nan nan nan nan nan nan nan nan nan nan 0 0 0 1 2 2 1 3 3 6 3 2 2 1 4 6 3 3 0 0 0 0 2 2 0 0 nan 2 2 7 5 1 1 0 0 1 1 0 0 nan 1 1 1 0 0 nan nan nan nan 0 0 0 0 1 1 2 2 2 2 1 1 1 1 1 0 0 1 0 0 4 11 13 13 21
nan nan nan nan nan nan nan nan nan nan 0 0 1 1 1 1 2 2 0 1 1 1 1 1 1 0 1 1 5 5 5 2 nan nan 0 1 0 0 0 0 0 4 5 4 4 1 0 0 0 0 1 0 0 0 0 nan nan nan 0 0 0 0 nan 0 0 1 2 2 3 3 2 0 0 0 0 0 0 0 0 nan nan 1 3 2 2 10
nan nan nan nan nan nan nan nan 0 0 0 2 3 3 2 1 0 0 nan nan nan nan 0 1 1 1 1 3 3 3 3 0 3 3 0 nan nan nan nan nan nan 1 2 1 1 1 1 1 1 0 1 nan nan nan 0 0 0 0 2 0 0 nan nan nan nan 0 1 1 1 1 1 0 0 0 1 1 1 1 0 nan nan 1 2 1 1 1
nan nan nan nan nan nan 0 1 1 1 1 2 2 2 2 2 1 1 0 0 0 0 0 1 1 1 1 1 1 1 1 0 3 3 nan nan nan nan nan nan nan nan nan 0 0 1 1 1 1 0 1 0 0 0 0 0 0 3 4 0 0 0 0 1 1 0 1 1 1 1 3 2 3 3 2 2 1 1 2 1 1 0 2 2 2 3
1 nan nan nan nan nan 0 0 2 2 2 2 2 2 2 3 1 1 0 0 0 0 0 0 0 0 0 0 0 0 0 1 1 1 nan nan nan nan nan nan nan nan nan nan nan 0 1 1 1 1 0 nan nan nan 0 0 0 1 2 0 0 1 1 2 2 0 1 1 1 1 3 1 1 1 1 1 1 1 4 2 2 7 6 3 3 3
0 nan nan nan nan 1 2 3 4 4 3 3 2 2 3 3 3 3 1 1 1 1 1 1 1 1 0 nan nan nan 0 0 1 1 1 0 nan nan nan nan nan nan nan nan nan nan 1 2 2 nan 0 0 nan nan 0 0 0 1 1 1 1 0 nan 0 0 nan 0 1 1 1 1 0 0 0 1 2 1 1 3 6 6 12 9 3 3 3
0 nan 0 1 1 3 4 4 4 4 4 3 3 3 3 3 4 4 3 1 1 1 1 0 0 0 0 0 nan nan nan 0 1 1 3 2 0 0 0 nan nan nan nan nan nan nan 0 1 1 0 0 nan nan nan 1 0 0 0 0 1 1 nan nan 0 0 0 0 0 1 1 0 0 0 0 0 1 1 1 2 1 1 0 4 1 1 1
nan nan 0 2 2 4 3 3 3 3 3 1 2 2 2 2 4 4 3 1 1 1 0 0 0 1 nan nan nan nan nan nan 0 0 1 2 5 5 3 1 1 nan nan nan nan nan nan nan nan 1 0 nan nan nan nan 1 1 1 1 1 1 1 0 1 1 1 0 0 0 0 nan 1 0 0 0 0 1 1 1 1 1 0 0 nan nan 0
1 1 1 1 1 1 2 2 2 2 1 1 1 1 1 2 2 2 1 1 1 1 1 1 1 1 0 0 nan nan nan nan nan nan nan 0 1 1 3 3 3 0 nan nan nan nan nan nan nan nan nan nan nan nan 0 nan nan 0 0 1 1 0 0 1 1 1 0 0 nan nan 0 1 0 0 0 0 0 0 0 0 0 0 1 0 0 nan
2 1 0 0 0 0 1 1 1 1 1 1 1 1 0 0 0 0 0 1 1 1 1 1 1 0 0 0 0 0 0 nan nan nan nan nan 1 1 1 1 1 4 0 nan nan nan nan nan nan nan nan nan 0 0 0 0 0 nan nan 0 0 nan nan 0 0 0 0 0 0 0 0 0 nan nan 1 0 0 0 1 0 0 0 1 1 1 1
2 1 0 0 0 0 0 0 0 0 1 1 1 1 1 0 1 1 1 1 1 1 2 0 0 0 0 0 0 0 0 0 nan nan nan nan nan nan 0 0 0 0 3 2 2 1 nan nan nan nan nan nan nan nan 0 0 0 0 nan nan nan nan nan 0 0 nan 1 1 0 0 0 nan nan nan 0 nan 0 0 1 1 1 0 1 2 2 1
0 0 0 0 0 0 0 0 0 0 1 1 1 1 1 2 6 6 1 1 1 0 0 0 0 0 0 0 0 0 1 1 1 1 0 nan 0 0 0 0 0 1 1 2 2 2 2 1 1 1 0 nan nan nan 0 0 0 0 0 nan nan nan nan nan nan nan 1 0 nan nan nan 0 nan nan nan nan nan nan 2 2 2 1 1 1 1 2
0 0 0 0 0 0 0 nan nan nan 0 1 1 1 1 1 1 1 1 0 0 0 0 0 0 0 0 0 0 0 1 1 0 0 0 0 nan nan 1 1 1 1 0 1 1 1 0 1 1 1 4 1 nan nan 0 0 0 0 0 0 0 nan nan nan nan 0 1 0 0 0 1 0 nan nan nan nan nan nan 1 2 2 1 1 2 2 3
1 0 0 nan nan 0 nan nan 0 0 1 1 2 2 2 1 1 1 1 0 0 0 nan 0 0 0 0 0 0 0 1 0 0 0 0 nan nan nan 0 1 1 0 0 nan nan 0 0 nan nan nan 2 7 1 1 nan nan nan 0 1 1 1 2 nan nan nan 0 3 0 0 0 nan 0 0 0 nan nan 1 1 2 1 1 2 1 2 2 3
CIN
nan nan nan nan nan nan nan nan nan nan nan nan nan nan nan nan nan nan nan nan nan nan nan nan nan nan nan nan nan nan -0 -0 -0 -0 -0 -0 -0 -0 -0 -0 -0 -0 -0 -0 -0 -0 -0 -0 -0 -0 -0 -0 -0 -0 -0 -0 -0 -0 -0 -0 -0 -0 -0 -0 -0 -0 -0 -0 -0 -0 -0 -0 -0 -0 -0 -0 -0 -0 -0 -0 -0 -0 -0 -0 -0 -0
nan nan nan nan nan nan nan nan nan nan nan nan nan nan nan nan nan nan nan nan nan nan nan nan nan nan nan nan -0 -0 -0 -0 -0 -0 -0 -0 -0 -0 -0 -0 -0 -0 -0 -0 -0 -0 -0 -0 -0 -0 -0 -0 -0 -0 -0 -0 -0 -0 -0 -0 -0 -0 -0 -0 -0 -0 -0 -0 -0 -0 -0 -0 -0 -0 -0 -0 -0 -0 -0 -0 -0 -0 -0 -0 -0 -0
nan nan nan nan nan nan nan nan nan nan nan nan nan nan nan nan nan nan nan nan nan nan nan nan nan nan nan nan -0 -0 -0 -0 -0 -0 -0 -0 -0 -0 -0 -0 -0 -0 -0 -0 -0 -0 -0 -0 -0 -0 -0 -0 -0 -0 -0 -0 -0 -0 -0 -0 -0 -0 -0 -0 -0 -0 -0 -0 -0 -0 -0 -0 -0 -0 -0 -0 -0 -0 -0 -0 -0 -0 -0 -0 -0 -0
nan nan nan nan nan nan nan nan nan nan nan nan nan nan nan nan nan nan nan nan nan nan nan nan nan nan nan nan nan nan -0 -0 -0 -0 -0 -0 -0 -0 -0 -0 -0 -0 -0 -0 -0 -0 -0 -0 -0 -0 -0 -0 -0 -0 -0 -0 -0 -0 -0 -0 -0 -0 -0 -0 -0 -0 -0 -0 -0 -0 -0 -0 -0 -0 -0 -0 -0 -0 -0 -0 -0 -0 -0 -0 -0 -0
nan nan nan nan nan nan nan nan nan nan nan nan nan nan nan nan nan nan nan nan nan nan nan nan nan nan nan nan nan nan nan nan -0 -0 -0 -0 -0 -0 -0 -0 -0 -0 -0 -0 -0 -0 -0 -0 -0 -0 -0 -0 -0 -0 -0 -0 -0 -0 -0 -0 -0 -0 -0 -0 -0 -0 -0 -0 -0 -0 -0 -0 -0 -0 -0 -0 -0 -0 -0 -0 -0 -0 -0 -0 -0 -0
nan nan nan nan nan nan nan nan nan nan nan nan nan nan nan nan nan nan nan nan nan nan nan nan nan nan nan nan nan nan nan nan -0 -0 -0 -0 -0 -0 -0 -0 -0 -0 -0 -0 -0 -0 -0 -0 -0 -0 -0 -0 -0 -0 -0 -0 -0 -0 -0 -0 -0 -0 -0 -0 -0 -0 -0 -0 -0 -0 -0 -0 -0 -0 -0 -0 -0 -0 -0 -0 -0 -0 -0 -0 -0 -0
nan nan nan nan nan nan nan nan nan nan nan nan nan nan nan nan nan nan nan nan nan nan nan nan nan nan nan nan nan nan nan nan nan nan nan -0 -0 -0 -0 -0 -0 -0 -0 -0 -0 -0 -0 -0 -0 -0 -0 -0 -0 -0 -0 -0 -0 -0 -0 -0 -0 -0 -0 -0 -0 -0 -0 -0 -0 -0 -0 -0 -0 -0 -0 -0 -0 -0 -0 -0 -0 -0 -0 -0 -0 -0
nan nan nan nan nan nan nan nan nan nan nan nan nan nan nan -0 -0 -0 -0 -0 -0 nan nan nan nan nan nan nan nan nan nan nan nan nan nan nan -0 -0 -0 -0 -0 -0 -0 -0 -0 -0 -0 -0 -0 -0 -0 -0 -0 -0 -0 -0 -0 -0 -0 -0 -0 -0 -0 -0 -0 -0 -0 -0 -0 -0 -0 -0 -0 -0 -0 -0 -0 -0 -0 -0 -0 -0 -0 -0 -0 -0
nan nan nan nan nan nan nan nan nan nan nan nan nan nan -0 -0 nan nan nan nan nan nan nan nan nan nan nan nan nan nan nan nan nan nan nan nan nan nan -0 -0 -0 -0 -0 -0 -0 -0 -0 -0 -0 -0 -0 -0 -0 -0 -0 -0 -0 -0 -0 -0 -0 -0 -0 -0 -0 -0 -0 -0 -0 -0 -0 -0 -0 -0 -0 -0 -0 -0 -0 -0 -0 -0 -0 -0 -0 -0
nan nan nan nan nan nan nan nan nan nan -0 -2 -3 -3 -0 -0 nan nan nan nan nan nan nan nan nan nan nan nan nan nan nan nan -0 -0 -0 -0 -0 -0 -0 -0 -0 -0 -0 -0 -0 -0 -0 -0 -0 -0 -0 -0 -0 -0 -0 -0 -0 -0 -0 -0 -0 -0 -0 -0 -0 -0 -0 -0 -0 -0 -0 -0 -0 -0 -0 -0 -0 -0 -0 -0 -0 -0 -0 -0 -0 -0
nan nan nan nan nan nan nan nan -0 -0 -0 -0 -0 -0 -0 nan nan nan nan nan nan nan nan nan nan nan nan nan nan nan nan nan nan nan nan -0 -0 -0 -0 -0 -0 -0 -0 -0 -0 -0 -0 -0 -0 -0 -0 -0 -0 -0 -0 -0 -0 -0 -0 -0 -0 -0 -0 -0 -0 -0 -0 -0 -0 -0 -0 -0 -0 -0 -0 -0 -0 -0 -0 -0 -0 -0 -0 -0 -0 -0
nan nan nan nan nan nan nan -0 -0 -0 -0 -0 nan nan nan nan -0 -0 nan nan nan nan nan nan nan nan nan nan nan nan nan nan nan nan nan nan nan nan nan nan nan nan nan nan nan -0 -0 -0 -0 -0 -0 nan -0 -0 -0 -0 -0 -0 -0 -0 -0 -0 -0 -0 -0 -0 -0 -0 -0 -0 -0 -0 -0 -0 -0 -0 -0 -0 -0 -0 -0 -0 -0 -0 -0 -0
nan nan nan nan nan nan -0 -0 -0 -0 -0 nan nan nan nan nan -0 -0 -0 -0 -0 -0 nan nan nan nan -0 nan nan nan nan nan nan nan nan nan nan nan nan nan nan nan nan nan nan nan nan nan nan nan nan nan nan nan nan nan nan -0 -0 -0 -0 -0 -0 -0 -0 -0 -0 -0 -0 -0 -0 -0 -0 -0 -0 -0 -0 -0 -0 -0 -0 -0 -0 -0 -0 -0
nan nan -0 -0 -0 -0 -0 -0 -0 -0 -0 nan nan nan nan nan -0 -0 -0 -0 -0 -0 -0 -0 -0 -0 -0 nan nan nan nan nan nan nan nan nan nan nan nan nan nan nan nan nan nan nan nan nan nan nan nan nan nan nan nan nan nan -0 -0 -0 -0 -0 -0 -0 -0 -0 -0 -0 -0 -0 -0 -0 -0 -0 -0 -0 -0 -0 -0 -0 -0 -0 -0 -0 -0 -0
-0 -0 -0 -0 -0 -0 -0 -0 -0 -0 nan nan nan nan nan -0 -0 -0 -0 -0 -0 -0 -0 -0 -0 -0 -0 nan nan nan -0 -0 -0 -0 nan nan nan nan nan nan nan nan nan nan nan nan nan nan nan nan nan nan nan nan nan nan nan -0 -0 -0 -0 -0 -0 -0 -0 -0 -0 -0 -0 -0 -0 -0 -0 -0 -0 -0 -0 -0 -0 -0 -0 -0 -0 -0 -0 -0
-0 -0 -0 -0 -0 -0 -0 -0 -0 -0 nan nan nan nan -0 -0 -0 -0 -0 -0 -0 -0 -0 -0 -0 -0 -0 -0 -0 -0 -0 -0 -0 -0 -0 nan nan nan nan nan nan nan nan nan nan nan nan nan nan nan nan nan nan nan nan -0 -0 -0 -0 -0 -0 -0 -0 -0 -0 -0 -0 -0 -0 -0 -0 -0 -0 -0 -0 -0 -0 -0 -0 -0 -0 -0 -0 -0 -0 -0
-0 -0 -0 -0 -0 -0 -0 -0 nan nan nan nan -0 -0 -0 -0 -0 -0 -0 -0 -0 -0 -0 -0 -0 -0 -0 nan nan nan -0 -0 -0 -0 -0 nan nan nan nan nan nan nan nan nan nan nan nan nan nan nan nan nan nan nan -0 -0 -0 -0 -0 -0 -0 -0 -0 -0 -0 -0 -0 -0 -0 -0 -0 -0 -0 -0 -0 -0 -0 -0 -0 -0 -0 -0 -0 -0 -0 -0
-0 -0 -0 -0 -0 -0 -0 -0 -0 -0 -0 -0 -0 -0 -0 -0 -0 -0 -0 -0 -0 -0 -0 -0 -0 -0 -0 -0 nan nan -0 -0 -0 -0 -0 nan nan nan nan nan nan nan nan nan nan nan nan nan nan nan nan -0 -0 -0 -0 -0 -0 -0 -0 -0 -0 -0 -0 -0 -0 -0 -0 -0 -0 -0 -0 -0 -0 -0 -0 -0 -0 -0 -0 -0 -0 -0 -0 -0 -0 -0
-0 -0 -0 -0 -0 -0 -0 -0 -0 -0 -0 -0 -0 -0 -0 -0 -0 -0 -0 -0 -0 -0 -0 -0 -0 -0 -0 -0 nan nan -0 -0 -0 -0 -0 nan nan nan nan nan nan nan nan nan nan nan nan nan nan nan -0 -0 -0 -0 -0 -0 -0 -0 -0 -0 -0 -0 -0 -0 -0 -0 -0 -0 -0 -0 -0 -0 -0 -0 -0 -0 -0 -0 -0 -0 -0 -0 -0 -0 -0 -0
-0 -0 -0 -0 -0 -0 -0 -0 -0 -0 -0 -0 -0 -0 -0 -0 -0 -0 -0 -0 -0 -0 -0 -0 -0 -0 -0 -0 -0 -0 -0 -0 -0 -0 -0 -0 nan nan nan nan nan nan nan nan nan nan nan nan nan nan nan -0 -0 -0 -0 -0 -0 -0 -0 -0 -0 -0 -0 -0 -0 -0 -0 -0 -0 -0 -0 -0 -0 -0 -0 -0 -0 -0 -0 -0 -0 -0 -0 -0 -0 -0
-0 -0 -0 -0 -0 -0 -0 -0 -0 -0 -0 -0 -0 -0 -0 -0 -0 -0 -0 -0 -0 -0 -0 -0 -0 -0 -0 -0 -0 -0 -0 -0 -0 -0 -0 -0 nan nan nan nan nan nan nan nan nan nan nan nan nan nan nan -0 -0 -0 -0 -0 -0 -0 -0 -0 -0 -0 -0 -0 -0 -0 -0 -0 -0 -0 -0 -0 -0 -0 -0 -0 -0 -0 -0 -0 -0 -0 -0 -0 -0 -0
-0 -0 -0 -0 -0 -0 -0 -0 -0 -0 -0 -3 -0 -0 -0 -0 -0 -0 -0 -0 -0 -0 -0 -0 -0 -0 -0 -0 -0 -0 -0 -0 -0 -0 -0 -0 nan nan nan nan nan nan nan nan nan nan nan nan nan nan nan -0 -0 -0 -0 -0 -0 -0 -0 -0 -0 -0 -0 -0 -0 -0 -0 -0 -0 -0 -0 -0 -0 -0 -0 -0 -0 -0 -0 -0 -0 -0 -0 -0 -0 -0
-4 -0 -0 -0 -0 -0 -0 -0 -0 -0 -0 -2 -0 -0 -0 -0 -0 -0 -0 -0 -0 -0 -0 -0 -0 -0 -0 -0 -0 -0 -0 -0 -0 -0 -0 -0 nan nan nan nan nan nan nan nan nan nan nan nan nan nan -0 -0 -0 -0 -0 -0 -0 -0 -0 -0 -0 -0 -0 -0 -0 -0 -0 -0 -0 -0 -0 -0 -0 -0 -0 -0 -0 -0 -0 -0 -0 -0 -0 -0 -0 -0
-0 -0 -0 -0 -0 -0 -0 -0 -0 -0 -9 nan nan nan -0 -0 -0 -0 -0 -0 -0 -0 -1 -2 -2 -0 -0 -0 -0 -0 nan -0 -0 -0 -0 -0 nan nan nan nan nan nan nan nan nan nan nan nan nan nan nan -0 -0 -0 -0 -0 -0 -0 -0 -0 -0 -0 -0 -0 -0 -0 -0 -0 -0 -0 -0 -0 -0 -0 -0 -0 -0 -0 -0 -0 -0 -0 -0 -0 -0 -0
-0 -0 -0 -0 -0 -0 -0 -2 -2 -2 -1 -0 -0 -0 -0 -0 -0 -0 -0 -0 -0 -0 -0 -0 -0 -0 -0 -0 nan nan nan nan -0 -0 -0 -0 nan nan nan nan nan nan nan nan nan nan nan nan nan nan nan -0 -0 -0 -0 -0 -0 -0 -0 -0 -0 -0 -0 -0 -0 -0 -0 -0 -0 -0 -0 -0 -0 -0 -0 -0 -0 -0 -0 -0 -0 -0 -0 -0 -0 -0
-0 -0 -0 -0 -0 -0 -0 -0 -0 -0 -0 -0 -0 -0 -0 -0 -0 -0 -0 -0 -0 -0 -0 -0 -0 -0 -0 nan nan nan nan nan -0 -0 -0 -0 nan nan nan nan nan nan nan nan nan nan nan nan nan nan nan nan -0 -0 -0 -0 -0 -0 -0 -0 -0 -0 -0 -0 -0 -0 -0 -0 -0 -0 -0 -0 -0 -0 -0 -0 -0 -0 -0 -0 -0 -0 -0 -0 -0 -0
-0 -0 -0 -0 -0 -0 -0 -0 -0 -0 -0 -0 -0 -0 -0 -0 -0 -0 -0 -0 -0 -0 -0 -0 -0 -0 -0 nan nan nan nan nan -0 -0 -0 -0 nan nan nan nan nan nan nan nan nan nan -0 nan nan nan nan nan nan nan -0 -0 -0 -0 -0 -0 -0 -0 -0 -0 -0 -0 -0 -0 -0 -0 -0 -0 -0 -0 -0 -0 -0 -0 -0 -0 -0 -0 -0 -0 -0 -0
-0 -0 -0 -0 -0 -0 -0 -0 -0 -0 -0 -0 -0 -0 -0 -0 -0 -0 -0 -0 -0 -0 -0 -0 -0 -0 -0 nan nan nan nan nan nan nan -0 -0 -0 -0 nan nan nan -0 nan nan nan -0 -0 -0 -0 nan nan nan nan nan -0 -0 -0 -0 -0 -0 -0 -0 -0 -0 -0 -0 -0 -0 -0 -0 -0 -0 -0 -0 -0 -0 -0 -0 -0 -0 -0 -0 -0 -0 -0 -0
-0 -0 -0 -0 -0 -0 -0 -0 -0 -0 -0 -0 -0 -0 -0 -0 -0 -0 -0 -0 -0 -0 -0 -0 -0 -0 -0 -0 nan nan nan nan nan nan -0 nan nan nan nan nan nan -0 nan -0 -0 -0 -0 -0 -0 nan nan nan nan nan nan -0 -0 -0 -0 -0 -0 -0 -0 -0 -0 -0 -0 -0 -0 -0 -0 -0 -0 -0 -0 -0 -0 -0 -0 -0 -0 -0 -0 -0 -0 -0
nan nan nan nan nan nan nan nan nan nan -0 -0 -0 -0 -0 -0 -0 -0 -0 -0 -0 -0 -0 -0 -0 -0 -0 -0 -0 -0 nan nan nan nan nan nan nan nan nan nan nan nan nan -0 -0 nan nan nan nan nan nan nan nan nan nan nan nan nan -0 -0 -0 -0 -0 -0 -0 -0 -0 -0 -0 -0 -0 -0 -0 -0 -0 -0 -0 -0 -0 -0 -0 -0 -0 -0 -0 -0
nan nan nan nan nan nan nan nan nan nan nan -0 -0 -0 -0 -0 -0 -0 -0 -0 -0 -0 -0 -0 -0 -0 -0 -0 -0 -0 nan nan nan nan nan -0 -0 -0 -0 -0 -0 -0 -0 nan nan -0 nan nan nan nan nan nan nan nan nan nan nan nan nan nan nan nan -0 -0 -0 -0 -0 -0 -0 -0 -0 -0 -0 -0 -0 -0 -0 -0 -0 -0 -0 -0 -0 -0 -0 -0
nan nan nan nan nan nan nan nan nan nan nan nan nan nan -0 -0 -0 -0 -0 -0 -0 -0 -0 -0 -0 -0 -0 -0 -0 -0 nan nan -0 -0 -0 -0 -0 -0 -0 -0 -0 -0 -0 -0 -0 nan nan nan nan nan nan -0 nan nan nan nan nan nan nan nan nan nan -0 -0 -0 -0 -0 -0 -0 -0 -0 -0 -0 -0 -0 -0 -0 -0 -0 -0 -0 -0 -0 -0 -0 -0
nan nan nan nan nan nan nan nan nan nan nan nan -0 -0 -0 -0 -0 -0 -0 -0 -0 -0 -0 -0 -0 -0 -0 -0 -0 -0 -0 nan -0 -0 -0 -0 -0 -0 -0 -0 -0 -0 -0 -0 -0 -0 nan nan nan nan -0 nan nan nan nan nan nan nan nan nan nan nan nan nan nan nan -0 -0 -0 -0 -0 -0 -0 -0 -0 -0 -0 -0 -0 -0 -0 -0 -0 -0 -0 -0
nan nan nan nan nan nan nan nan nan nan nan nan nan nan -0 -0 -0 -0 -0 -0 -0 -0 -0 -0 -0 -0 -0 -0 -0 -0 nan nan -0 -0 -0 -0 -0 -0 -0 -0 -0 -0 -0 -0 -0 -0 -0 nan nan nan nan nan -0 -0 nan nan nan nan nan nan nan nan nan nan nan nan nan -0 nan nan nan -0 -0 -0 -0 -0 -0 -0 -0 -0 -0 -0 -0 -0 -0 -0
nan nan nan nan nan nan nan nan nan nan nan nan nan nan nan -0 -0 -0 -0 -0 -0 -0 -0 -0 -0 -0 -0 -0 -0 -0 nan nan -0 -0 -0 -0 -0 -0 -0 -0 -0 -0 -0 -0 -0 -0 -0 -0 -0 -0 -0 nan nan nan nan nan nan nan nan nan nan nan nan nan nan -0 nan nan nan nan nan nan nan nan -0 -0 -0 -0 -0 -0 -0 -0 -0 -0 -0 -0
nan nan nan nan nan nan nan nan nan nan nan nan nan nan nan -0 -0 -0 -0 -0 -0 -0 -0 -0 -0 -0 -0 -0 -0 -0 -0 nan -0 -0 -0 -0 -0 -0 -0 -0 -0 -0 -0 -0 -0 -0 -0 -0 -0 -0 -0 -0 nan nan nan nan nan nan nan -0 -0 -0 -0 -0 -0 -0 nan nan nan nan nan nan nan nan nan -0 -0 -0 -0 -0 -0 -0 -0 -0 -0 -0
nan nan nan nan nan nan nan nan nan nan nan nan nan nan nan -0 -0 -0 -0 -0 -0 -0 -0 -0 -0 -0 -0 -0 -0 -0 -0 -0 -0 -0 -0 -0 nan nan nan -0 -0 -0 -0 -0 -0 -0 nan -0 -0 -0 -0 -0 nan nan nan nan nan nan nan nan nan -0 -0 -0 -0 -0 -0 -0 nan nan nan -0 -0 -0 -0 -0 -0 -0 -0 -0 -0 -0 -0 -0 -0 -0
nan nan nan nan nan nan nan nan nan nan nan nan -0 -0 -0 -0 -0 -0 -0 -0 -0 -0 -0 -0 -0 -0 -0 -0 -0 -0 -0 -0 -0 -0 -0 -2 -0 -0 nan -0 -0 -0 -0 -0 -0 -0 -0 -0 -0 -0 -0 nan -0 -0 -0 -0 -0 nan nan nan nan -0 -0 -0 -0 -0 -0 -0 -0 -0 -0 -0 -0 -0 -0 -0 -0 -0 -0 -0 -0 -0 -0 -0 -0 -0
nan nan nan nan nan nan nan nan nan nan -0 -0 -0 -0 -0 -0 -0 -0 -0 -0 -0 -0 -0 -0 -0 -0 -4 -8 -0 -0 -0 -4 nan nan -8 -5 -2 -2 -0 -0 -0 -0 -0 -0 -0 -0 -0 -0 -0 -0 -0 -0 -0 -0 -0 nan nan nan -0 -0 -0 -0 nan -0 -0 -0 -0 -0 -0 -0 -0 -0 -0 -0 -0 -0 -0 -0 -0 nan nan -0 -0 -0 -0 -0
nan nan nan nan nan nan nan nan -0 -0 -0 -0 -0 -0 -0 -0 -0 -0 nan nan nan nan -0 -0 -0 -0 -0 -0 -0 -0 -0 -11 -4 -4 -7 nan nan nan nan nan nan -0 -0 -0 -0 -0 -0 -0 -0 -0 -0 nan nan nan -0 -0 -0 -0 -0 -0 -0 nan nan nan nan -0 -0 -0 -0 -0 -0 -0 -0 -0 -0 -0 -0 -0 -0 nan nan -0 -0 -0 -0 -0
nan nan nan nan nan nan -0 -0 -0 -0 -0 -0 -0 -0 -0 -0 -0 -0 -0 -0 -0 -0 -0 -0 -0 -0 -0 -0 -0 -0 -0 -8 -0 -0 nan nan nan nan nan nan nan nan nan -0 -0 -0 -0 -0 -0 -0 -0 -0 -0 -0 -0 -0 -0 -0 -0 -0 -0 -0 -0 -0 -0 -0 -0 -0 -0 -0 -0 -0 -0 -0 -0 -0 -0 -0 -0 -0 -0 -0 -0 -0 -0 -0
-0 nan nan nan nan nan -0 -0 -0 -0 -0 -0 -0 -0 -0 -0 -0 -0 -0 -0 -0 -0 -0 -0 -0 -0 -0 -0 -0 -0 -0 -0 -7 -7 nan nan nan nan nan nan nan nan nan nan nan -0 -0 -0 -0 -0 -0 nan nan nan -0 -0 -0 -0 -0 -0 -0 -0 -0 -0 -0 -0 -0 -0 -0 -0 -0 -0 -0 -0 -0 -0 -0 -0 -0 -0 -0 -0 -0 -0 -0 -0
-0 nan nan nan nan -0 -0 -0 -0 -0 -0 -0 -0 -0 -0 -0 -0 -0 -0 -0 -0 -0 -0 -0 -0 -0 -0 nan nan nan -0 -7 -1 -1 -4 -16 nan nan nan nan nan nan nan nan nan nan -0 -0 -0 nan -0 -0 nan nan -0 -0 -0 -0 -0 -0 -0 -0 nan -0 -0 nan -0 -0 -0 -0 -0 -0 -0 -0 -0 -0 -0 -0 -0 -0 -0 -0 -0 -0 -0 -0
-0 nan -0 -0 -0 -0 -0 -0 -0 -0 -0 -0 -0 -0 -0 -0 -0 -0 -0 -0 -0 -0 -0 -0 -0 -0 -0 -0 nan nan nan -0 -2 -2 -0 -2 -12 -12 -5 nan nan nan nan nan nan nan -0 -0 -0 -0 -0 nan nan nan -0 -0 -0 -0 -0 -0 -0 nan nan -0 -0 -0 -0 -0 -0 -0 -0 -0 -0 -0 -0 -0 -0 -0 -0 -0 -0 -0 -0 -0 -0 -0
nan nan -0 -0 -0 -0 -0 -0 -0 -0 -0 -0 -0 -0 -0 -0 -0 -0 -0 -0 -0 -0 -0 -0 -0 -0 nan nan nan nan nan nan -0 -0 -1 -0 -0 -0 -2 -2 -2 nan nan nan nan nan nan nan nan -0 -0 nan nan nan nan -0 -0 -0 -0 -0 -0 -0 -0 -0 -0 -0 -0 -0 -0 -0 nan -0 -0 -0 -0 -0 -0 -0 -0 -0 -0 -0 -0 nan nan -0
-0 -0 -0 -0 -0 -0 -0 -0 -0 -0 -0 -0 -0 -0 -0 -0 -0 -0 -0 -0 -0 -0 -0 -0 -0 -0 -0 -0 nan nan nan nan nan nan nan -1 -2 -2 -0 -1 -1 -1 nan nan nan nan nan nan nan nan nan nan nan nan -0 nan nan -0 -0 -0 -0 -0 -0 -0 -0 -0 -0 -0 nan nan -0 -0 -0 -0 -0 -0 -0 -0 -0 -0 -0 -0 -0 -0 -0 nan
-0 -0 -0 -0 -0 -0 -0 -0 -0 -0 -0 -0 -0 -0 -0 -0 -0 -0 -0 -0 -0 -0 -0 -0 -0 -0 -0 -0 -0 -0 -0 nan nan nan nan nan -0 -0 -0 -0 -0 -0 -6 nan nan nan nan nan nan nan nan nan -0 -0 -0 -0 -0 nan nan -0 -0 nan nan -0 -0 -0 -0 -0 -0 -0 -0 -1 nan nan -0 -0 -0 -0 -0 -0 -0 -0 -0 -0 -0 -0
-0 -0 -0 -0 -0 -0 -0 -0 -0 -0 -0 -0 -0 -0 -0 -0 -0 -0 -0 -0 -0 -0 -0 -0 -0 -0 -0 -0 -0 -0 -0 -0 nan nan nan nan nan nan -1 -2 -2 -1 -0 -1 -1 -1 nan nan nan nan nan nan nan nan -0 -0 -0 -0 nan nan nan nan nan -0 -0 nan -0 -0 -2 -2 -1 nan nan nan -0 nan -0 -0 -0 -0 -0 -0 -0 -0 -0 -0
-0 -0 -0 -0 -0 -0 -0 -0 -0 -0 -0 -0 -0 -0 -0 -0 -0 -0 -0 -0 -0 -0 -0 -0 -0 -0 -0 -0 -0 -0 -0 -0 -0 -0 -0 nan -0 -0 -0 -0 -0 -0 -0 -0 -0 -0 -0 -7 -7 -5 -0 nan nan nan -0 -0 -0 -0 -0 nan nan nan nan nan nan nan -0 -2 nan nan nan -0 nan nan nan nan nan nan -0 -0 -0 -0 -1 -0 -0 -0
-0 -0 -0 -0 -0 -0 -0 nan nan nan -0 -0 -0 -0 -0 -0 -0 -0 -0 -0 -0 -0 -0 -0 -0 -0 -0 -0 -0 -0 -0 -0 -0 -0 -0 -0 nan nan -0 -0 -0 -0 -0 -0 -0 -0 -0 -8 -8 -8 -1 -0 nan nan -0 -0 -0 -0 -0 -0 -0 nan nan nan nan -2 -0 -1 -11 -11 -7 -3 nan nan nan nan nan nan -0 -0 -0 -1 -0 -1 -1 -0
-0 -0 -0 nan nan -0 nan nan -0 -0 -0 -0 -0 -0 -0 -0 -0 -0 -0 -0 -0 -0 nan -0 -0 -0 -0 -0 -0 -0 -0 -0 -0 -0 -0 nan nan nan -0 -0 -0 -0 -0 nan nan -0 -0 nan nan nan -0 -0 -3 -3 nan nan nan -0 -0 -0 -0 -0 nan nan nan -1 -0 -1 -7 -7 nan -5 -2 -2 nan nan -0 -0 -0 -0 -0 -0 -1 -0 -0 -0
Wind_Speed
1 1 1 2 2 2 2 2 2 3 5 5 5 5 5 6 6 7 9 9 9 9 8 9 9 10 11 13 15 16 17 18 18 18 19 19 19 19 19 19 19 19 19 19 19 19 19 19 19 19 19 19 19 19 19 19 19 19 19 19 20 20 21 21 21 22 22 22 22 22 22 22 23 22 22 23 23 23 23 24 24 24 24 24 24 25
1 1 1 2 2 2 2 2 2 3 5 5 5 5 6 7 7 6 7 8 9 9 8 9 9 10 11 12 13 15 16 17 18 18 19 19 19 19 19 19 19 19 19 19 19 19 19 18 18 18 18 18 18 18 19 19 19 19 19 20 20 20 21 21 21 22 22 22 22 22 22 23 23 23 23 23 23 24 24 24 25 25 25 25 25 25
0 0 1 1 1 2 3 3 3 3 4 5 6 6 7 7 7 6 6 7 8 8 8 8 9 9 10 11 12 14 16 17 18 19 19 19 19 19 19 19 19 19 19 19 19 19 18 18 18 18 18 18 19 19 19 19 19 19 20 20 20 20 21 21 21 22 22 22 22 22 23 23 23 23 23 23 24 24 24 25 25 25 25 25 26 26
0 1 1 1 1 2 3 3 3 3 3 4 5 6 7 7 6 6 6 7 7 8 8 8 8 8 8 9 11 13 16 18 18 19 19 19 20 20 20 19 19 19 19 19 19 19 18 18 18 18 19 19 19 19 19 19 20 20 20 20 21 21 21 21 22 22 22 22 23 23 23 23 23 23 24 24 24 24 25 25 25 25 25 25 26 26
1 1 1 1 1 2 2 3 3 3 3 4 5 6 6 6 6 6 6 7 7 8 7 7 8 8 7 8 10 13 16 18 19 19 19 20 20 20 20 19 19 19 19 19 19 19 19 19 19 19 19 19 19 20 20 20 20 20 21 21 21 21 22 22 22 22 22 22 23 23 23 23 23 24 24 24 24 24 25 25 25 25 25 25 26 26
1 1 1 1 1 2 2 2 2 3 3 4 5 6 6 5 5 6 6 6 7 7 6 6 7 8 8 9 11 13 16 17 18 19 19 19 19 19 19 19 19 19 19 19 19 19 19 19 19 19 19 20 20 20 20 21 21 21 21 21 22 22 22 22 22 22 22 22 23 23 23 23 23 23 23 23 24 24 24 24 24 25 25 25 25 25
1 1 1 1 1 2 2 2 2 3 4 5 5 5 5 5 5 6 6 6 6 6 6 6 7 8 8 9 11 13 14 15 16 17 17 18 18 18 18 18 18 19 19 19 19 19 19 19 20 20 20 20 21 21 21 21 22 22 22 22 22 22 22 22 22 22 22 22 22 22 22 23 23 23 23 23 23 23 23 24 24 24 25 25 25 25
2 2 2 2 2 2 2 2 3 3 4 5 5 5 5 5 5 5 6 6 6 5 6 6 7 7 8 9 10 11 11 12 12 13 14 14 15 16 16 17 18 18 19 19 19 19 19 20 20 20 21 21 21 22 22 22 22 22 22 22 22 22 22 22 22 22 22 22 22 22 22 22 22 22 22 22 23 23 23 23 24 24 24 25 25 25
3 3 3 3 3 3 3 3 3 4 4 4 5 5 5 5 5 5 6 5 5 5 5 6 7 7 8 8 9 9 9 10 10 10 11 11 11 13 14 15 17 18 18 19 19 19 20 20 20 21 21 22 22 22 22 22 22 22 22 22 22 21 21 21 21 22 22 22 22 22 22 22 22 22 22 22 22 22 23 23 23 24 24 24 25 25
4 4 3 3 3 3 4 4 4 4 4 4 4 4 4 5 6 6 6 6 5 5 5 6 7 8 8 8 8 8 9 10 11 12 12 12 13 14 15 15 15 16 18 18 19 20 20 21 21 21 22 22 22 22 22 22 22 21 21 21 21 21 21 21 21 21 21 22 22 22 22 22 22 22 22 22 22 22 23 23 23 23 24 24 24 25
3 3 3 3 3 3 3 4 4 4 4 3 3 3 3 4 5 6 7 7 6 6 5 6 7 7 8 8 8 8 8 8 9 10 12 13 14 15 15 14 15 15 17 18 19 19 20 20 21 21 22 22 22 22 22 21 21 21 21 21 21 21 21 21 21 21 21 21 22 22 22 22 22 22 22 22 22 23 23 23 23 23 24 24 24 25
3 2 2 3 3 3 3 4 3 3 2 2 3 3 4 3 4 5 7 7 7 7 7 6 6 7 8 8 8 8 7 7 7 7 8 9 10 10 10 10 11 12 14 15 16 17 18 19 20 20 20 21 21 21 21 20 20 21 21 21 21 21 21 21 21 22 22 22 22 22 22 22 23 23 23 23 23 23 23 23 23 24 24 24 24 25
3 2 2 3 4 4 4 3 3 2 2 3 4 5 5 4 4 5 5 7 7 7 7 7 7 7 7 7 7 7 7 7 7 7 7 7 7 7 7 7 8 9 9 10 11 12 15 17 18 18 19 19 19 20 20 20 20 21 21 21 21 21 22 22 22 22 22 22 22 22 23 23 23 23 23 23 24 24 24 24 24 24 24 25 25 25
3 3 3 4 4 4 3 3 3 3 3 4 4 5 5 5 5 5 6 6 7 7 7 8 8 7 6 7 6 6 6 6 6 7 7 7 7 7 7 7 8 8 8 9 9 10 12 13 13 14 16 17 18 19 18 19 20 21 21 22 22 22 22 22 22 22 22 22 23 23 23 23 23 24 24 24 24 24 24 24 24 24 25 25 25 25
4 4 5 5 4 4 3 3 3 4 4 4 4 5 5 5 5 5 6 6 7 7 7 8 8 7 5 5 5 5 6 6 6 6 7 7 7 7 8 8 8 8 8 9 9 10 11 11 10 11 12 15 16 17 18 19 20 22 22 22 23 23 23 23 23 23 23 23 23 23 23 23 23 24 24 24 24 24 24 24 24 25 25 25 25 25
4 5 5 5 4 3 2 2 3 4 5 5 5 5 5 5 5 5 6 7 7 6 6 7 7 7 5 5 5 5 5 5 6 7 8 8 8 7 8 8 8 8 8 9 9 9 9 9 10 10 11 14 17 19 21 21 22 23 23 23 23 23 24 24 24 24 24 24 24 24 24 24 24 24 24 24 24 24 24 24 24 25 25 25 25 25
4 4 4 4 3 3 3 3 4 5 5 5 5 5 5 5 5 6 6 6 6 5 5 6 6 6 5 5 4 4 5 5 6 6 8 8 8 8 8 8 8 8 8 9 9 9 8 9 9 10 11 14 17 20 22 22 23 24 24 24 24 24 24 24 24 24 24 24 24 24 24 24 24 24 24 24 24 24 24 24 24 24 25 25 25 25
3 2 2 3 3 4 4 4 5 5 5 5 5 5 5 5 6 6 6 6 6 6 5 5 5 5 5 5 5 4 6 6 6 7 8 9 8 8 7 7 8 8 9 9 8 8 8 9 9 10 12 17 20 22 23 24 24 24 25 25 25 25 25 25 25 25 25 24 24 24 24 24 24 24 24 24 24 24 24 24 24 24 24 24 25 25
2 2 3 4 4 5 5 5 5 5 4 4 5 5 6 6 6 6 6 6 6 6 6 6 5 5 6 6 6 6 6 7 7 7 8 9 8 8 7 7 7 8 8 9 9 8 8 9 10 13 16 19 21 23 24 24 25 25 25 25 25 25 25 25 25 25 25 25 25 25 25 25 24 24 24 24 24 24 24 24 24 24 24 24 24 25
4 4 4 5 5 6 6 5 5 5 5 5 6 6 6 6 6 6 6 6 5 5 5 5 6 6 6 7 8 8 7 7 7 7 8 9 9 8 7 7 7 8 8 8 8 8 8 9 10 13 16 19 21 22 23 24 24 25 25 25 25 25 25 25 25 25 25 25 25 25 25 25 24 24 24 24 24 24 24 24 24 24 24 25 25 25
5 5 5 5 5 5 4 4 5 6 7 7 7 7 7 6 6 6 5 5 5 5 5 5 6 7 6 8 8 8 8 7 7 6 6 7 7 7 6 6 7 8 9 9 8 8 9 9 9 10 13 17 20 22 23 24 25 25 25 25 26 26 26 26 26 26 26 26 25 25 25 25 25 24 24 24 24 24 24 25 25 25 25 25 25 25
5 5 6 6 5 5 5 6 7 8 9 9 8 7 6 6 6 5 5 5 5 5 6 6 7 7 8 9 9 9 8 7 6 6 5 6 7 8 6 6 7 8 9 9 8 8 9 9 9 10 13 17 20 22 23 24 24 25 25 25 25 26 26 26 26 25 25 25 25 25 25 25 25 25 25 24 24 24 24 25 25 25 25 25 25 25
4 5 6 6 5 5 6 6 7 8 9 8 7 6 5 5 5 5 5 5 6 6 7 7 8 8 8 9 9 8 7 6 5 5 5 7 8 7 5 6 7 8 8 8 8 9 9 9 9 11 13 18 21 22 23 24 24 25 25 25 25 25 25 25 25 25 25 25 25 25 25 25 25 25 25 25 24 24 24 24 24 25 25 25 25 25
5 5 5 5 5 5 6 6 7 7 6 6 5 5 4 5 5 6 6 6 7 7 7 7 8 8 8 8 8 7 6 5 4 4 4 6 7 7 6 6 7 8 9 8 8 9 9 10 9 10 11 16 19 21 22 23 24 24 24 25 25 25 25 25 25 25 25 25 25 25 25 25 25 25 25 25 25 25 25 25 25 25 25 25 25 25
5 5 5 5 6 7 7 7 7 6 5 5 4 4 5 6 7 8 7 7 7 6 6 7 8 8 7 8 7 6 5 4 3 3 4 5 6 7 6 6 7 8 9 8 8 9 9 10 10 10 10 13 17 20 21 22 23 23 24 24 24 24 25 25 25 25 25 25 25 25 25 25 25 25 25 25 25 25 25 25 25 25 24 24 24 24
8 7 7 8 9 10 11 12 12 12 12 10 8 7 7 8 8 7 7 7 6 6 6 7 7 7 7 6 6 5 4 3 3 4 4 4 6 7 6 6 7 8 9 9 8 9 9 10 10 10 10 11 14 17 19 21 22 23 23 24 24 24 24 25 25 25 25 25 25 25 25 26 26 25 25 25 25 25 25 25 25 25 24 24 24 23
10 10 11 11 12 12 13 14 15 16 17 15 13 11 9 7 7 7 7 6 5 5 5 6 7 7 7 6 6 5 5 4 4 4 4 5 6 6 6 6 6 8 9 9 8 9 10 10 10 10 10 10 11 13 17 19 21 22 23 23 24 24 24 25 25 25 25 25 25 25 25 25 25 25 25 25 25 25 25 25 25 24 24 23 21 19
9 9 9 10 11 12 13 14 15 15 16 16 16 14 11 7 6 6 6 5 5 5 5 6 7 7 6 6 6 6 6 5 4 4 4 4 5 6 6 6 6 7 8 8 8 9 10 10 10 10 10 10 10 11 14 17 19 20 21 22 23 24 24 24 25 25 25 25 25 25 25 25 25 25 25 25 25 25 24 24 24 24 22 19 15 12
7 8 9 9 10 11 12 12 13 13 14 14 14 12 9 6 5 5 5 5 5 5 6 6 6 6 6 7 7 7 6 5 4 3 3 4 5 5 6 6 6 6 7 7 7 8 8 8 8 8 9 9 9 10 11 13 15 16 18 20 21 22 23 23 23 24 24 24 24 24 24 25 24 24 24 24 24 24 24 25 24 21 17 14 11 10
5 6 7 8 9 9 9 9 10 10 12 12 12 11 8 5 4 5 5 5 5 5 6 6 6 6 6 6 6 6 5 4 2 1 2 3 4 5 6 6 7 6 6 6 6 6 6 6 6 7 8 9 9 9 9 10 11 12 13 15 17 18 20 21 22 23 23 24 24 24 24 24 24 24 24 24 24 24 24 24 22 18 12 10 9 9
4 5 5 6 6 6 6 6 7 8 9 9 9 8 6 5 4 4 5 5 5 5 6 6 6 6 6 5 5 5 4 3 2 2 3 4 4 5 6 7 7 6 5 5 5 6 7 6 6 6 7 9 9 9 10 10 10 10 10 11 12 13 16 19 20 21 21 22 23 23 24 24 24 24 24 24 24 24 24 24 22 17 11 9 9 9
4 5 5 5 5 5 5 5 5 5 5 6 6 6 5 5 5 5 5 5 5 5 6 6 6 6 6 6 5 5 5 4 5 6 6 4 4 5 6 6 7 7 5 5 5 6 6 6 6 6 7 8 9 9 10 10 10 10 10 10 10 11 14 16 17 18 18 19 20 21 22 23 23 23 23 23 23 23 23 24 21 17 11 10 9 10
5 5 4 4 4 4 4 4 4 4 4 4 4 4 4 5 5 5 5 5 5 5 5 6 6 6 7 7 7 7 6 6 7 7 7 5 4 5 5 6 7 7 6 6 6 6 6 7 7 8 8 8 8 9 9 10 10 10 10 10 10 10 12 13 13 14 14 15 16 17 19 20 21 21 22 22 22 23 23 23 22 19 14 11 9 10
5 5 5 4 4 4 4 4 4 4 4 4 4 4 4 4 4 5 5 5 5 5 5 6 6 7 7 7 7 7 7 7 7 8 7 5 5 5 6 7 7 7 7 6 6 7 6 8 8 8 8 8 8 8 9 9 10 9 9 9 9 10 10 10 11 11 12 12 12 13 14 15 16 18 19 19 20 20 21 21 21 20 18 14 11 10
5 5 5 4 4 4 4 4 4 4 4 4 4 4 4 4 4 5 5 5 5 5 5 6 6 6 7 7 7 8 8 8 8 8 8 6 5 5 6 7 7 7 7 7 7 6 6 8 9 10 9 9 9 8 8 8 9 9 8 9 9 9 10 10 10 10 11 11 11 11 11 11 11 12 14 16 17 18 20 21 21 21 21 19 16 13
5 5 5 5 4 5 5 5 4 4 4 4 4 4 4 5 5 5 5 5 5 6 6 6 6 7 7 7 8 9 9 9 9 9 9 7 6 6 6 6 7 8 7 8 7 7 7 9 10 10 11 10 9 8 8 8 8 8 9 9 9 10 10 10 10 10 10 10 10 10 10 10 10 10 11 14 17 19 20 21 21 22 22 22 21 18
4 5 5 5 5 5 5 5 5 4 5 4 4 5 5 5 5 5 5 5 6 6 7 7 8 8 9 9 9 9 10 10 10 10 11 9 8 7 7 7 8 8 8 8 8 8 8 9 10 10 10 10 9 8 8 8 9 9 9 9 9 10 10 10 10 10 10 11 11 10 10 10 10 11 11 14 16 17 19 20 20 20 21 21 22 21
5 5 5 5 4 4 5 5 5 5 5 5 5 5 6 6 6 7 6 7 7 7 7 7 8 9 12 12 12 12 12 13 14 14 13 11 9 8 8 8 9 9 8 8 8 8 9 9 10 10 9 9 10 10 10 10 10 10 10 10 10 10 10 10 10 10 10 10 11 11 11 11 11 10 11 11 11 12 12 13 14 15 17 18 19 20
5 5 5 5 5 5 5 5 5 5 5 5 6 6 6 7 7 7 7 7 7 8 8 8 8 9 10 12 13 14 15 15 14 14 13 11 10 9 9 9 9 10 9 9 9 9 9 9 9 9 9 9 10 10 10 10 10 11 11 10 10 10 10 10 9 9 10 10 11 11 11 11 10 10 10 10 9 9 10 10 10 11 12 11 13 15
5 5 5 5 5 5 5 5 5 5 6 6 7 7 7 7 7 7 7 7 7 7 8 9 9 8 9 10 11 13 13 12 11 12 11 10 10 9 9 9 9 9 9 9 9 9 9 10 10 11 11 10 10 10 10 10 11 11 11 10 9 9 9 9 10 10 10 10 10 11 10 10 10 10 10 10 9 9 9 9 9 9 10 9 9 9
5 5 5 5 5 5 5 5 6 6 6 6 6 6 6 6 6 6 6 6 6 6 7 7 8 8 9 9 10 11 11 11 11 11 10 10 10 10 9 9 9 9 9 9 9 9 9 10 11 11 11 11 11 12 12 12 13 13 13 12 11 11 11 11 11 11 10 10 10 10 11 11 11 11 10 10 10 10 9 9 10 10 9 9 8 8
5 5 5 5 5 5 5 6 6 6 6 6 6 6 6 5 6 6 6 6 6 6 6 6 7 8 9 9 9 9 9 9 10 10 10 10 11 11 10 9 9 9 9 9 10 10 10 11 11 11 11 11 11 11 11 12 13 13 13 12 12 12 12 12 11 10 10 10 10 10 11 11 11 10 11 10 10 10 10 11 11 12 11 10 9 9
5 5 5 5 5 5 6 6 6 6 6 6 6 6 5 5 5 6 7 7 7 7 7 6 7 8 9 9 9 8 7 7 8 9 9 9 10 10 10 11 10 9 9 9 10 10 11 11 11 11 11 11 11 11 12 13 13 13 12 12 12 11 8 8 8 9 9 10 10 10 10 10 10 10 10 10 10 10 10 11 12 13 12 11 10 10
5 5 5 5 5 5 5 5 5 5 5 6 6 6 5 6 6 6 7 6 7 7 7 7 7 8 9 9 9 9 8 7 7 7 8 9 9 10 10 11 11 11 10 9 9 10 10 11 11 11 11 10 10 11 12 12 12 12 12 13 12 11 10 10 10 10 10 10 10 11 11 11 11 10 10 10 10 10 10 10 10 11 12 11 10 10
5 5 5 5 5 5 5 5 5 5 5 6 6 6 6 6 6 6 6 6 7 7 7 7 7 7 8 8 9 9 8 8 7 7 7 8 10 11 11 10 10 10 10 10 10 10 10 10 11 11 10 10 10 11 12 12 13 13 13 13 13 12 12 12 11 11 11 11 11 11 12 11 11 10 10 10 10 10 10 10 10 10 10 10 10 10
4 5 5 5 5 5 6 6 6 6 6 6 6 6 6 6 6 6 6 7 7 7 7 7 6 7 8 8 9 9 9 8 8 7 6 7 7 8 8 9 9 9 9 9 10 10 10 11 11 11 10 10 11 12 12 12 12 12 13 13 12 12 12 12 11 11 11 12 12 12 12 12 11 10 10 10 10 10 10 10 10 10 11 10 10 11
5 5 5 5 5 5 6 6 6 6 6 6 6 6 6 6 6 6 6 6 7 7 7 7 7 7 8 9 9 9 9 10 10 9 8 8 8 7 7 8 8 9 9 9 10 11 11 11 11 11 11 11 11 12 12 12 12 12 12 12 12 11 11 11 11 11 11 12 12 12 13 12 11 11 11 11 11 10 10 10 10 11 11 10 10 11
5 5 5 5 6 6 6 6 6 6 6 6 6 6 6 6 6 6 6 6 6 6 7 7 7 8 8 9 9 9 9 10 10 10 9 9 8 8 8 7 8 8 9 10 11 11 12 12 13 12 12 12 12 12 13 12 12 12 12 11 11 11 12 12 11 11 11 12 12 12 12 11 10 11 11 11 11 10 10 10 10 10 10 10 10 10
5 5 6 6 6 6 6 6 6 6 7 7 6 6 6 6 7 7 6 6 6 6 6 7 7 8 8 9 9 9 10 10 10 10 9 9 9 8 8 8 8 8 9 9 10 11 11 12 12 13 12 12 12 13 13 13 12 12 11 11 11 11 11 11 11 11 11 11 12 12 11 10 10 10 10 11 11 12 11 11 10 10 9 9 10 10
5 6 6 6 6 6 6 6 6 6 7 7 7 7 6 6 6 6 6 6 6 6 6 7 8 8 9 9 9 9 10 9 9 9 9 8 8 8 9 9 9 9 9 9 9 9 9 9 9 11 12 13 13 13 13 13 12 12 11 11 10 10 10 11 11 11 11 11 11 11 11 10 10 9 9 11 12 13 12 11 10 10 9 9 9 10
6 6 6 6 6 6 6 6 6 7 7 7 7 7 7 7 6 6 6 6 6 7 7 7 8 8 9 9 10 10 10 9 9 10 10 9 8 8 9 9 9 9 9 9 8 8 7 7 7 8 9 12 14 14 12 12 11 11 11 10 10 10 10 10 10 11 11 11 10 10 10 10 10 9 9 10 11 12 12 11 11 10 9 8 9 9
Wind_Direction
224 173 146 181 215 244 246 232 261 286 296 298 299 299 298 299 300 300 300 301 301 301 300 300 301 301 300 300 301 302 303 303 304 304 304 304 304 303 303 303 302 302 301 300 299 298 298 297 296 295 295 294 293 293 292 291 291 291 290 290 291 291 290 290 290 290 290 290 290 290 290 290 290 290 291 291 290 290 290 289 288 287 286 286 285 284
209 188 163 179 210 251 275 256 255 272 288 293 296 298 300 301 301 301 300 300 300 300 301 301 301 300 299 299 299 300 302 303 303 304 304 304 304 304 304 303 302 302 301 300 299 298 297 297 296 295 295 294 293 293 292 291 291 291 291 291 291 291 291 291 291 291 291 291 291 291 291 290 290 290 289 289 288 287 286 285 285 284 283 283 282 282
202 201 181 174 202 252 280 274 264 261 272 283 289 294 298 299 299 299 300 301 301 302 301 300 300 299 299 298 298 300 301 302 303 304 304 304 304 304 303 303 302 301 301 300 299 298 297 296 296 295 295 294 294 293 293 292 292 292 292 292 293 292 292 292 292 292 292 292 291 291 290 290 289 289 288 287 286 285 284 283 283 282 282 282 281 281
242 240 228 203 227 248 265 273 271 265 265 277 284 288 290 292 293 295 297 299 300 300 299 298 297 296 296 296 298 299 301 302 303 304 304 304 304 303 303 302 301 301 300 299 298 297 297 296 296 295 295 294 294 294 293 293 293 293 293 294 294 294 293 293 293 293 293 292 291 290 290 289 288 288 287 286 285 285 284 283 283 282 282 281 281 280
213 223 227 244 255 257 251 257 262 267 271 278 282 284 284 286 289 292 294 296 297 298 298 298 297 296 295 296 297 299 301 302 302 303 303 302 302 301 301 300 300 299 299 298 298 297 296 296 296 295 295 295 295 294 294 294 294 294 295 295 295 294 294 294 293 293 292 291 290 290 289 288 287 287 286 285 285 284 283 283 282 282 281 280 280 279
237 225 223 244 264 269 266 254 262 274 283 285 287 288 288 288 289 291 292 295 296 297 298 299 298 297 295 295 296 298 299 300 300 301 300 299 299 298 298 298 298 297 297 297 297 296 296 296 296 296 296 296 296 296 295 295 295 295 295 295 295 295 294 294 293 292 291 291 290 289 288 287 286 285 284 284 283 282 282 281 281 280 280 279 278 278
263 248 236 247 260 266 270 265 274 286 295 297 297 297 294 292 290 289 291 294 296 297 298 298 297 296 295 294 295 296 298 298 298 297 296 295 295 294 295 295 295 296 296 296 296 296 296 296 296 296 296 297 297 297 297 296 296 296 296 296 295 295 294 293 293 292 291 290 288 287 286 285 284 283 282 281 281 280 280 279 279 278 278 277 277 276
266 260 252 258 264 269 269 269 278 288 295 298 301 301 300 296 294 293 294 294 294 295 297 298 297 296 295 296 296 296 296 296 295 294 293 293 292 293 293 294 295 295 296 296 296 296 296 296 296 297 297 297 297 297 297 297 297 296 296 296 295 295 294 293 292 291 290 288 287 286 285 283 282 281 280 279 279 278 278 277 277 276 276 276 275 275
262 266 262 262 271 282 287 286 289 291 292 293 296 299 301 302 302 301 299 297 295 295 298 300 299 298 297 297 296 295 292 291 290 291 291 292 293 294 294 295 296 296 296 296 296 296 296 297 297 297 297 297 297 296 296 296 296 296 296 295 295 294 293 292 291 290 289 288 286 285 284 282 281 280 278 277 277 276 275 275 275 275 274 274 274 274
255 261 267 263 267 279 291 295 297 296 290 284 283 287 294 302 305 307 306 304 302 301 300 299 299 298 298 297 295 293 291 289 288 288 288 289 291 292 294 294 295 296 296 297 297 297 297 296 297 297 296 296 295 295 295 295 295 295 295 294 294 293 292 292 291 290 289 287 286 284 283 281 280 279 277 276 275 275 274 274 274 273 273 274 274 274
251 253 261 267 269 273 281 288 292 293 289 278 271 271 275 294 305 309 310 309 308 306 302 298 296 296 296 296 295 294 293 291 289 288 288 288 289 290 291 292 293 294 295 296 296 296 296 295 295 295 295 294 294 294 294 294 294 294 294 294 293 293 292 291 290 289 288 286 285 284 282 281 280 279 278 277 276 275 274 274 274 274 274 274 274 274
254 256 261 274 281 283 281 280 279 278 277 281 287 290 292 300 306 309 308 307 306 305 302 298 294 291 290 291 292 293 293 293 292 292 291 291 290 290 290 291 293 293 294 294 294 294 294 294 294 294 293 293 292 292 293 293 293 293 293 293 292 291 290 289 288 287 286 285 284 283 282 281 281 280 279 278 277 276 276 275 275 275 274 274 274 274
255 259 268 278 283 285 283 280 278 279 285 299 305 309 311 314 312 308 302 299 299 300 300 297 292 287 284 284 286 288 291 293 294 296 297 296 296 296 297 297 296 296 296 295 295 294 294 294 294 293 292 292 292 292 292 292 292 292 291 291 290 289 289 288 287 286 286 285 284 284 283 282 282 281 280 279 278 278 277 276 276 275 274 274 273 273
260 264 273 278 280 280 279 282 289 299 304 308 309 309 309 310 307 301 294 292 292 293 293 291 290 288 285 284 283 286 290 294 296 298 299 300 302 304 304 302 301 299 299 297 294 293 294 295 294 293 292 291 291 291 291 291 290 290 290 289 289 289 288 288 287 287 286 286 285 284 284 283 282 281 281 279 279 278 277 276 275 275 274 273 273 272
272 277 280 281 282 282 285 295 301 304 306 307 307 306 305 303 298 294 290 290 290 290 289 288 288 289 289 290 289 290 292 296 300 302 303 303 304 305 305 301 299 297 296 294 292 292 293 293 292 290 290 289 289 289 289 290 290 289 289 289 289 289 289 289 288 288 287 287 286 285 284 283 282 281 280 279 279 278 277 276 276 275 274 273 273 272
280 283 284 287 289 290 294 300 302 303 305 306 306 305 302 297 293 290 288 289 290 290 291 293 294 293 292 292 293 296 299 303 305 305 305 302 301 302 303 300 298 295 293 291 291 291 291 290 288 287 287 287 288 288 289 289 289 289 289 289 289 290 290 290 289 289 288 287 286 285 284 283 282 281 281 280 279 279 278 277 276 275 275 274 273 272
280 281 282 287 289 290 292 297 300 302 304 305 303 299 292 288 286 284 282 284 287 289 289 294 298 300 300 300 301 306 314 314 311 306 303 299 299 300 301 298 295 292 290 288 287 288 289 288 287 286 285 286 287 288 288 289 289 289 290 290 290 290 290 290 290 289 288 288 287 286 285 284 283 283 282 281 280 280 279 278 277 276 276 275 274 273
286 288 287 285 290 295 302 304 303 303 303 301 296 289 281 278 276 276 275 277 280 283 286 290 294 297 301 302 306 316 325 319 313 306 301 297 296 297 298 293 290 288 287 286 286 286 287 286 285 285 284 286 287 288 288 289 289 289 290 290 290 290 290 290 290 289 289 289 288 287 287 286 285 284 283 283 282 281 280 279 279 278 277 276 275 274
289 287 288 293 297 301 303 301 301 300 299 295 290 286 280 275 273 272 272 273 275 279 283 287 289 291 294 295 301 311 321 317 311 305 298 294 294 295 297 292 288 287 286 286 286 287 287 286 284 284 284 285 286 287 288 288 289 289 289 289 290 290 290 290 290 290 290 290 289 289 288 287 286 286 285 284 283 283 282 281 280 279 278 277 276 275
289 288 290 296 298 297 295 294 294 294 292 288 284 281 277 275 273 272 272 273 275 277 281 283 286 288 291 293 299 306 315 314 308 300 294 292 292 294 296 293 290 288 287 286 287 288 288 286 285 284 284 285 286 287 287 288 288 288 289 289 289 290 290 290 290 290 290 290 290 289 289 288 287 286 286 285 284 283 282 282 281 280 279 278 277 276
292 291 292 294 294 293 291 292 290 289 286 282 279 276 274 275 276 276 278 279 279 279 280 280 285 290 295 295 298 303 311 308 303 297 293 290 290 291 294 293 291 289 287 287 288 289 288 286 285 285 285 286 287 287 288 288 288 288 289 289 290 290 290 290 290 290 290 290 290 289 289 288 287 286 286 285 284 283 282 282 281 280 280 279 278 277
288 288 289 288 286 284 285 287 285 282 277 274 271 270 273 276 279 281 284 285 285 286 288 289 292 293 294 293 294 297 301 298 294 293 293 289 288 289 293 292 290 288 287 288 289 289 288 287 286 286 287 287 288 288 288 289 289 289 289 290 290 290 290 290 290 290 290 290 289 289 288 287 286 286 285 284 283 283 283 283 282 282 281 281 280 279
273 280 286 283 279 276 276 275 273 271 269 267 266 266 269 275 281 286 291 292 292 293 294 293 292 290 288 286 287 289 289 288 287 287 288 284 285 288 294 294 291 288 286 289 291 292 291 289 288 288 288 288 288 289 289 289 290 290 290 290 290 290 290 290 290 290 290 289 289 288 287 287 286 286 286 285 285 285 285 284 284 284 283 282 282 281
272 277 279 276 271 266 263 263 262 261 260 260 260 261 264 271 279 286 290 292 293 293 292 291 289 286 283 283 284 285 285 284 283 281 279 280 284 289 295 295 292 288 287 289 292 293 293 290 289 289 289 289 289 289 290 290 291 291 291 291 291 291 291 290 290 289 289 289 289 289 288 288 288 288 288 288 287 287 286 286 285 284 283 283 282 281
283 280 277 272 266 262 260 262 266 271 277 277 278 280 281 285 289 291 291 291 290 290 290 289 287 286 286 287 287 287 289 283 274 269 272 278 282 286 291 293 292 290 289 291 293 294 294 292 291 290 290 289 290 290 291 291 291 291 291 291 291 291 290 290 290 290 290 290 290 291 290 291 290 290 289 289 288 287 286 285 284 284 283 282 281 280
291 287 285 285 284 285 288 293 297 301 305 305 303 302 300 298 296 294 290 288 288 288 288 286 285 286 288 290 289 289 291 279 263 258 266 275 282 286 291 292 291 290 291 293 295 296 295 294 293 293 292 291 291 291 291 291 291 291 291 291 291 291 291 291 292 292 292 292 291 291 290 290 289 289 288 287 287 286 285 285 284 284 283 282 281 280
296 296 297 300 303 306 308 309 308 307 305 303 301 299 298 297 293 288 283 285 288 291 289 287 287 288 290 289 288 290 294 290 279 270 270 277 283 287 291 293 292 292 293 295 296 297 296 294 294 293 291 290 290 290 290 290 291 291 291 291 292 292 292 292 292 292 291 291 290 289 289 288 288 287 287 286 286 285 285 284 284 284 284 283 282 280
304 307 311 312 313 312 310 306 304 301 300 298 297 296 295 291 286 282 281 288 293 292 286 285 286 289 291 291 292 293 296 291 287 282 281 280 281 284 290 295 297 296 296 296 296 295 292 290 289 288 288 288 288 289 290 291 292 292 292 291 291 291 291 291 290 290 290 289 289 288 288 287 287 286 286 286 285 285 285 285 285 285 285 284 282 279
315 317 316 313 310 307 304 301 299 297 296 295 295 294 292 286 280 278 283 291 291 287 281 280 281 284 288 291 293 293 291 286 285 287 291 284 281 283 292 297 299 299 300 299 297 293 287 284 284 286 288 290 292 293 293 293 293 292 290 290 289 289 289 289 289 289 289 289 288 288 287 287 287 287 286 286 286 286 286 286 286 286 285 283 281 278
316 313 308 304 301 299 297 294 292 291 291 292 292 291 288 283 277 277 282 285 282 279 278 279 280 283 287 292 294 293 287 286 293 311 303 289 285 288 296 298 299 301 305 304 301 297 290 286 286 290 294 296 296 296 295 293 292 290 288 288 288 287 287 288 288 288 288 288 288 288 287 287 287 287 287 287 287 287 286 287 286 286 284 281 279 276
296 295 292 290 288 286 284 282 282 283 285 288 289 288 285 279 274 272 273 272 272 272 274 277 279 282 286 291 292 291 289 298 311 317 309 295 289 292 299 298 297 298 303 303 303 302 301 298 296 297 298 298 296 294 292 291 290 289 289 288 288 287 287 287 287 287 287 287 288 288 287 287 287 287 287 286 286 286 286 286 286 285 282 279 276 274
285 284 284 282 280 277 274 274 275 276 279 280 280 278 274 272 270 269 269 268 268 270 272 275 278 279 280 279 279 280 285 295 304 308 306 295 289 289 294 294 294 295 297 292 290 291 297 300 302 302 301 297 294 292 290 289 289 288 288 288 287 286 287 288 288 288 288 288 288 288 287 287 286 286 285 285 284 284 284 284 283 282 280 278 275 274
291 289 286 284 280 276 272 272 272 272 272 271 268 265 264 266 269 271 271 270 269 269 272 274 277 278 277 275 273 273 277 284 293 299 300 294 289 288 292 292 292 293 294 287 281 278 280 288 295 299 298 294 292 290 290 289 288 287 287 287 287 287 288 289 289 288 288 288 288 287 287 286 285 284 283 282 282 281 281 281 280 279 277 275 273 272
297 296 293 291 287 282 277 273 271 271 273 274 274 272 270 272 274 275 276 274 271 269 270 272 274 276 278 277 276 275 277 281 289 296 300 295 289 288 291 291 291 292 292 288 284 280 277 282 288 293 296 294 291 290 290 290 289 288 286 286 286 287 289 289 289 288 287 287 287 286 285 284 283 282 281 280 279 278 278 278 277 276 274 272 269 267
299 298 298 297 295 291 287 281 277 276 280 284 286 286 286 284 283 280 279 276 273 270 267 267 268 270 272 275 278 279 280 284 291 297 299 292 288 286 289 287 288 289 290 288 287 286 284 284 287 290 294 295 293 290 288 288 289 288 287 285 285 286 287 288 287 287 287 286 284 283 282 282 281 279 278 277 276 276 276 276 275 274 273 271 269 266
301 301 302 301 300 298 296 294 292 293 295 294 292 291 290 289 287 284 281 278 275 272 270 266 264 264 264 266 270 274 278 284 289 292 291 287 284 283 284 284 286 287 287 286 285 285 285 286 287 289 290 292 292 292 291 291 291 291 290 289 287 286 286 286 285 285 285 283 282 281 280 279 278 277 276 275 276 276 276 276 275 274 273 272 271 269
299 300 301 302 301 301 301 302 303 304 304 301 298 297 295 293 291 288 284 279 274 271 269 267 265 262 259 259 261 266 272 278 283 284 283 281 279 278 278 280 282 283 282 282 283 284 284 286 287 287 286 286 288 292 297 299 298 295 292 292 291 289 287 285 283 282 281 279 278 278 278 277 277 276 276 276 276 277 277 276 275 275 274 273 271 270
298 299 302 303 303 303 303 305 306 306 305 304 302 301 300 297 295 291 287 282 276 271 269 267 266 264 262 262 263 265 269 273 276 277 276 275 273 272 273 276 277 276 274 275 277 280 282 284 286 287 287 285 286 288 294 297 298 296 294 293 291 289 287 285 282 280 278 277 277 278 278 278 277 277 277 277 277 277 276 275 273 273 272 271 270 269
297 300 303 303 304 305 306 306 306 306 306 304 303 302 300 298 295 292 288 285 281 277 274 273 272 270 267 266 266 266 268 269 270 270 270 268 266 266 268 272 274 275 273 272 273 274 275 277 279 282 285 287 288 289 290 291 292 294 295 295 292 287 284 284 284 283 281 281 281 281 280 278 277 276 275 275 274 273 272 272 270 269 269 269 269 268
300 301 301 302 303 305 305 305 305 305 304 302 301 300 299 297 295 293 290 288 285 283 281 279 277 275 272 270 269 268 268 267 266 265 264 261 258 258 262 266 270 273 274 272 270 269 270 271 273 275 278 282 286 288 290 289 289 291 295 295 293 290 289 290 289 288 285 282 281 280 279 278 276 274 272 270 269 268 268 268 268 268 267 266 268 269
302 300 299 301 302 303 303 303 302 302 300 300 300 300 298 299 297 295 294 291 288 287 286 284 282 280 278 275 274 272 271 268 265 263 260 256 253 253 255 260 264 268 271 270 269 268 267 269 271 274 275 277 280 283 284 285 286 288 290 289 287 288 291 290 289 286 283 279 277 276 277 277 276 274 272 271 268 266 265 266 266 266 265 262 261 263
299 298 299 301 302 302 302 301 300 299 300 300 299 299 299 299 299 298 298 297 295 293 293 292 292 291 289 286 281 276 271 267 264 262 259 255 253 252 253 256 259 262 266 268 268 267 266 267 269 271 273 275 277 280 281 283 284 285 285 284 285 288 289 285 283 281 280 280 279 279 278 279 278 276 275 273 271 269 267 265 264 264 263 260 258 256
296 295 297 298 299 298 298 298 299 301 302 301 299 297 298 299 299 300 299 299 299 299 298 298 297 297 296 294 291 286 279 271 267 265 264 259 255 253 254 254 255 257 259 264 267 268 267 266 266 267 269 271 272 275 278 282 284 284 282 282 284 287 288 285 285 285 284 283 283 281 279 278 276 275 274 273 272 270 268 266 264 262 259 258 257 255
293 294 294 294 294 294 295 298 300 301 301 299 298 297 297 298 298 298 298 297 297 298 299 299 298 295 292 292 294 296 296 291 282 273 268 264 259 257 257 257 256 255 254 258 263 268 271 269 267 267 268 269 270 271 274 278 280 281 281 281 280 279 277 282 287 289 287 283 280 278 276 276 275 275 274 273 271 269 267 264 261 258 255 254 253 253
291 292 292 293 295 297 299 299 299 299 298 296 296 297 298 298 298 298 296 295 295 296 297 299 298 296 292 294 297 301 302 302 299 291 280 271 268 266 264 262 261 259 256 255 257 261 267 270 272 272 273 271 269 269 271 274 277 278 279 278 277 275 272 276 279 281 281 280 278 277 276 277 277 277 276 273 270 267 264 262 260 257 254 251 249 249
290 291 293 295 297 297 297 297 297 297 295 294 294 295 297 297 295 293 291 291 292 294 294 295 293 292 292 296 300 302 303 304 303 301 297 289 281 276 272 269 267 264 261 258 257 257 259 264 269 274 277 274 270 268 267 270 273 275 277 278 277 277 276 275 275 275 276 277 277 277 278 279 279 277 275 273 271 268 265 262 259 257 255 251 248 246
293 294 295 295 295 293 293 294 294 294 293 294 295 295 295 294 293 290 288 288 289 290 292 291 288 286 287 291 295 298 300 302 303 304 304 302 298 293 288 281 275 271 267 265 263 261 260 260 263 266 271 273 273 271 269 269 270 272 274 277 278 278 277 276 275 275 275 275 275 276 279 280 278 276 274 274 273 272 269 265 261 258 256 253 250 247
298 297 296 295 293 293 293 294 294 294 294 294 294 294 294 293 292 291 290 290 290 290 290 290 287 285 284 285 287 290 293 296 298 301 303 304 303 301 298 293 287 282 277 274 271 269 266 262 260 260 261 265 269 272 273 272 271 271 272 275 276 276 275 275 275 275 275 273 272 272 273 274 274 274 275 276 275 274 272 269 265 261 257 254 251 249
297 294 293 292 292 292 292 294 295 295 295 295 295 295 295 293 293 292 291 291 290 288 287 286 286 285 286 286 287 288 290 291 293 295 298 301 302 303 302 300 297 293 289 284 279 275 272 266 259 254 252 254 259 265 270 271 271 270 271 272 273 273 273 274 275 275 275 274 271 269 266 266 267 269 272 275 276 276 276 274 271 267 262 257 253 251
293 290 289 290 290 292 293 294 294 294 294 296 296 297 296 295 293 291 288 287 285 283 281 282 283 284 285 286 287 288 289 289 291 292 294 298 301 303 303 302 301 299 296 293 290 286 283 276 266 256 248 247 250 256 265 269 270 271 271 270 271 271 272 274 276 277 278 278 276 273 269 268 267 267 268 272 275 277 278 277 274 271 266 261 257 254
293 291 290 290 290 291 292 293 293 293 292 294 295 296 296 295 293 291 288 285 283 281 279 279 279 280 281 284 286 286 287 288 290 291 293 297 299 300 299 299 299 299 298 297 297 297 296 293 287 277 263 253 250 251 259 266 271 273 274 273 273 274 275 277 278 279 280 280 280 278 275 273 271 269 268 270 274 278 280 279 277 275 272 269 265 261